| time (UTC) | temp F | wind direction | speed knots | gust knots | rain 1hr in | rain 24hr in | rain mn in | humidity % | barometer mb |
| 20260510231820 | 68 | 92 | 7.0 | 15.6 | 0.00 | 0.00 | 0.00 | 32 | 1023.6 |
| 20260510231326 | 68 | 122 | 6.1 | 15.6 | 0.00 | 0.00 | 0.00 | 33 | 1023.6 |
| 20260510230811 | 68 | 133 | 7.0 | 15.6 | 0.00 | 0.00 | 0.00 | 33 | 1023.6 |
| 20260510230315 | 68 | 153 | 5.2 | 13.9 | 0.00 | 0.00 | 0.00 | 33 | 1023.5 |
| 20260510225823 | 68 | 105 | 7.0 | 14.8 | 0.00 | 0.00 | 0.00 | 32 | 1023.6 |
| 20260510225311 | 68 | 133 | 5.2 | 14.8 | 0.00 | 0.00 | 0.00 | 33 | 1023.5 |
| 20260510224819 | 68 | 82 | 6.1 | 14.8 | 0.00 | 0.00 | 0.00 | 34 | 1023.5 |
| 20260510224324 | 68 | 122 | 6.1 | 14.8 | 0.00 | 0.00 | 0.00 | 34 | 1023.4 |
| 20260510223813 | 67 | 146 | 5.2 | 14.8 | 0.00 | 0.00 | 0.00 | 35 | 1023.4 |
| 20260510223318 | 68 | 116 | 7.0 | 15.6 | 0.00 | 0.00 | 0.00 | 34 | 1023.5 |
| 20260510222823 | 68 | 80 | 7.8 | 15.6 | 0.00 | 0.00 | 0.00 | 33 | 1023.4 |
| 20260510222309 | 68 | 69 | 7.0 | 19.1 | 0.00 | 0.00 | 0.00 | 32 | 1023.4 |
| 20260510221814 | 69 | 93 | 7.0 | 19.1 | 0.00 | 0.00 | 0.00 | 31 | 1023.4 |
| 20260510221318 | 70 | 90 | 7.8 | 15.6 | 0.00 | 0.00 | 0.00 | 31 | 1023.3 |
| 20260510220822 | 70 | 99 | 4.3 | 16.5 | 0.00 | 0.00 | 0.00 | 31 | 1023.2 |
| 20260510220308 | 70 | 126 | 5.2 | 16.5 | 0.00 | 0.00 | 0.00 | 30 | 1023.2 |
| 20260510215813 | 70 | 148 | 7.0 | 13.9 | 0.00 | 0.00 | 0.00 | 29 | 1023.2 |
| 20260510215321 | 70 | 149 | 2.6 | 12.2 | 0.00 | 0.00 | 0.00 | 28 | 1023.1 |
| 20260510214810 | 70 | 84 | 3.5 | 13.9 | 0.00 | 0.00 | 0.00 | 27 | 1023.1 |
| 20260510214315 | 69 | 96 | 6.1 | 13.9 | 0.00 | 0.00 | 0.00 | 28 | 1023.1 |
| 20260510213821 | 70 | 94 | 5.2 | 13.0 | 0.00 | 0.00 | 0.00 | 26 | 1023.1 |
| 20260510213308 | 70 | 87 | 4.3 | 11.3 | 0.00 | 0.00 | 0.00 | 26 | 1023.2 |
| 20260510212817 | 70 | 115 | 3.5 | 11.3 | 0.00 | 0.00 | 0.00 | 26 | 1023.1 |
| 20260510212321 | 70 | 128 | 5.2 | 9.6 | 0.00 | 0.00 | 0.00 | 26 | 1023.2 |
| 20260510211809 | 70 | 115 | 3.5 | 7.8 | 0.00 | 0.00 | 0.00 | 27 | 1023.2 |
| 20260510211313 | 69 | 154 | 2.6 | 9.6 | 0.00 | 0.00 | 0.00 | 25 | 1023.1 |
| 20260510210819 | 69 | 190 | 4.3 | 9.6 | 0.00 | 0.00 | 0.00 | 27 | 1023.0 |
| 20260510210309 | 68 | 93 | 4.3 | 13.9 | 0.00 | 0.00 | 0.00 | 28 | 1023.0 |
| 20260510205813 | 66 | 89 | 7.0 | 13.9 | 0.00 | 0.00 | 0.00 | 30 | 1023.1 |
| 20260510205319 | 66 | 150 | 4.3 | 12.2 | 0.00 | 0.00 | 0.00 | 31 | 1023.2 |
| 20260510204823 | 66 | 75 | 4.3 | 10.4 | 0.00 | 0.00 | 0.00 | 32 | 1023.6 |
| 20260510204309 | 66 | 86 | 4.3 | 13.0 | 0.00 | 0.00 | 0.00 | 31 | 1023.8 |
| 20260510203814 | 66 | 129 | 5.2 | 13.0 | 0.00 | 0.00 | 0.00 | 34 | 1024.1 |
| 20260510203320 | 66 | 70 | 2.6 | 8.7 | 0.00 | 0.00 | 0.00 | 30 | 1024.1 |
| 20260510202825 | 65 | 74 | 1.7 | 8.7 | 0.00 | 0.00 | 0.00 | 30 | 1024.0 |
| 20260510202310 | 65 | 96 | 2.6 | 13.0 | 0.00 | 0.00 | 0.00 | 29 | 1024.1 |
| 20260510201816 | 65 | 90 | 7.8 | 13.0 | 0.00 | 0.00 | 0.00 | 31 | 1024.1 |
| 20260510201320 | 66 | 120 | 4.3 | 11.3 | 0.00 | 0.00 | 0.00 | 36 | 1024.0 |
| 20260510200809 | 67 | 107 | 3.5 | 11.3 | 0.00 | 0.00 | 0.00 | 34 | 1023.9 |
| 20260510200317 | 67 | 178 | 0.0 | 8.7 | 0.00 | 0.00 | 0.00 | 34 | 1023.5 |
| 20260510195822 | 67 | 88 | 2.6 | 10.4 | 0.00 | 0.00 | 0.00 | 33 | 1023.4 |
| 20260510195310 | 68 | 94 | 2.6 | 10.4 | 0.00 | 0.00 | 0.00 | 32 | 1023.4 |
| 20260510194817 | 69 | 98 | 2.6 | 9.6 | 0.00 | 0.00 | 0.00 | 30 | 1023.4 |
| 20260510194325 | 70 | 173 | 0.9 | 3.5 | 0.00 | 0.00 | 0.00 | 22 | 1023.2 |
| 20260510193810 | 71 | 270 | 1.7 | 7.0 | 0.00 | 0.00 | 0.00 | 20 | 1023.2 |
| 20260510193318 | 71 | 175 | 1.7 | 7.8 | 0.00 | 0.00 | 0.00 | 21 | 1023.2 |
| 20260510192825 | 72 | 197 | 3.5 | 8.7 | 0.00 | 0.00 | 0.00 | 20 | 1023.2 |
| 20260510192314 | 72 | 171 | 1.7 | 7.8 | 0.00 | 0.00 | 0.00 | 20 | 1023.2 |
| 20260510191818 | 71 | 107 | 1.7 | 7.8 | 0.00 | 0.00 | 0.00 | 21 | 1023.1 |
| 20260510191324 | 71 | 221 | 0.9 | 7.0 | 0.00 | 0.00 | 0.00 | 21 | 1023.2 |
| 20260510190808 | 70 | 179 | 1.7 | 8.7 | 0.00 | 0.00 | 0.00 | 22 | 1023.4 |
| 20260510190316 | 71 | 249 | 2.6 | 7.8 | 0.00 | 0.00 | 0.00 | 21 | 1023.5 |
| 20260510185821 | 72 | 130 | 1.7 | 7.0 | 0.00 | 0.00 | 0.00 | 21 | 1023.5 |
| 20260510185326 | 72 | 299 | 3.5 | 7.0 | 0.00 | 0.00 | 0.00 | 21 | 1023.4 |
| 20260510184812 | 72 | 247 | 2.6 | 7.0 | 0.00 | 0.00 | 0.00 | 22 | 1023.5 |
| 20260510184317 | 72 | 145 | 2.6 | 7.0 | 0.00 | 0.00 | 0.00 | 22 | 1023.5 |
| 20260510183822 | 71 | 182 | 0.9 | 7.0 | 0.00 | 0.00 | 0.00 | 23 | 1023.5 |
| 20260510183310 | 71 | 235 | 3.5 | 7.8 | 0.00 | 0.00 | 0.00 | 23 | 1023.6 |
| 20260510182816 | 71 | 159 | 0.9 | 11.3 | 0.00 | 0.00 | 0.00 | 22 | 1023.6 |
| 20260510182321 | 71 | 267 | 3.5 | 12.2 | 0.00 | 0.00 | 0.00 | 23 | 1023.6 |
| 20260510181825 | 70 | 240 | 3.5 | 12.2 | 0.00 | 0.00 | 0.00 | 25 | 1023.6 |
| 20260510181311 | 70 | 94 | 1.7 | 7.8 | 0.00 | 0.00 | 0.00 | 25 | 1023.6 |
| 20260510180819 | 70 | 144 | 0.9 | 8.7 | 0.00 | 0.00 | 0.00 | 24 | 1023.6 |
| 20260510180324 | 71 | 168 | 2.6 | 8.7 | 0.00 | 0.00 | 0.00 | 25 | 1023.7 |
| 20260510175808 | 71 | 198 | 4.3 | 7.8 | 0.00 | 0.00 | 0.00 | 26 | 1023.7 |
| 20260510175314 | 70 | 257 | 1.7 | 7.8 | 0.00 | 0.00 | 0.00 | 24 | 1023.7 |
| 20260510174822 | 70 | 183 | 2.6 | 7.8 | 0.00 | 0.00 | 0.00 | 24 | 1023.9 |
| 20260510174312 | 70 | 146 | 0.9 | 6.1 | 0.00 | 0.00 | 0.00 | 25 | 1023.8 |
| 20260510173816 | 70 | 184 | 2.6 | 7.8 | 0.00 | 0.00 | 0.00 | 26 | 1024.0 |
| 20260510173322 | 69 | 164 | 3.5 | 7.8 | 0.00 | 0.00 | 0.00 | 27 | 1024.0 |
| 20260510172827 | 69 | 113 | 2.6 | 6.1 | 0.00 | 0.00 | 0.00 | 27 | 1023.9 |
| 20260510172311 | 68 | 244 | 0.9 | 8.7 | 0.00 | 0.00 | 0.00 | 28 | 1023.9 |
| 20260510171817 | 68 | 194 | 1.7 | 8.7 | 0.00 | 0.00 | 0.00 | 28 | 1024.0 |
| 20260510171322 | 68 | 184 | 2.6 | 8.7 | 0.00 | 0.00 | 0.00 | 27 | 1024.0 |
| 20260510170827 | 68 | 188 | 4.3 | 7.0 | 0.00 | 0.00 | 0.00 | 27 | 1024.0 |
| 20260510170312 | 68 | 184 | 0.0 | 10.4 | 0.00 | 0.00 | 0.00 | 28 | 1024.0 |
| 20260510165817 | 68 | 148 | 3.5 | 10.4 | 0.00 | 0.00 | 0.00 | 28 | 1024.0 |
| 20260510165322 | 68 | 211 | 1.7 | 6.1 | 0.00 | 0.00 | 0.00 | 28 | 1023.8 |
| 20260510164811 | 67 | 185 | 2.6 | 9.6 | 0.00 | 0.00 | 0.00 | 28 | 1023.8 |
| 20260510164319 | 67 | 138 | 3.5 | 9.6 | 0.00 | 0.00 | 0.00 | 28 | 1023.8 |
| 20260510163807 | 67 | 195 | 2.6 | 9.6 | 0.00 | 0.00 | 0.00 | 30 | 1023.8 |
| 20260510163312 | 67 | 128 | 3.5 | 7.8 | 0.00 | 0.00 | 0.00 | 30 | 1023.7 |
| 20260510162820 | 67 | 177 | 4.3 | 7.8 | 0.00 | 0.00 | 0.00 | 30 | 1023.8 |
| 20260510162325 | 67 | 134 | 3.5 | 11.3 | 0.00 | 0.00 | 0.00 | 30 | 1023.7 |
| 20260510161810 | 67 | 199 | 5.2 | 12.2 | 0.00 | 0.00 | 0.00 | 30 | 1023.7 |
| 20260510161314 | 67 | 120 | 1.7 | 7.0 | 0.00 | 0.00 | 0.00 | 28 | 1023.7 |
| 20260510160820 | 67 | 192 | 2.6 | 6.1 | 0.00 | 0.00 | 0.00 | 28 | 1023.6 |
| 20260510160309 | 67 | 178 | 1.7 | 7.0 | 0.00 | 0.00 | 0.00 | 28 | 1023.6 |
| 20260510155815 | 66 | 157 | 2.6 | 5.2 | 0.00 | 0.00 | 0.00 | 28 | 1023.7 |
| 20260510155319 | 66 | 194 | 1.7 | 10.4 | 0.00 | 0.00 | 0.00 | 29 | 1023.7 |
| 20260510154825 | 66 | 156 | 3.5 | 10.4 | 0.00 | 0.00 | 0.00 | 29 | 1023.6 |
| 20260510154309 | 66 | 174 | 2.6 | 7.8 | 0.00 | 0.00 | 0.00 | 29 | 1023.6 |
| 20260510153814 | 66 | 140 | 2.6 | 7.8 | 0.00 | 0.00 | 0.00 | 29 | 1023.6 |
| 20260510153322 | 66 | 104 | 2.6 | 7.8 | 0.00 | 0.00 | 0.00 | 29 | 1023.6 |
| 20260510152826 | 66 | 132 | 4.3 | 7.8 | 0.00 | 0.00 | 0.00 | 29 | 1023.6 |
| 20260510152311 | 65 | 94 | 2.6 | 12.2 | 0.00 | 0.00 | 0.00 | 29 | 1023.4 |
| 20260510151815 | 65 | 140 | 4.3 | 12.2 | 0.00 | 0.00 | 0.00 | 29 | 1023.4 |
| 20260510151320 | 65 | 178 | 1.7 | 5.2 | 0.00 | 0.00 | 0.00 | 30 | 1023.3 |
| 20260510150812 | 65 | 138 | 3.5 | 8.7 | 0.00 | 0.00 | 0.00 | 29 | 1023.3 |
| 20260510150316 | 65 | 119 | 4.3 | 8.7 | 0.00 | 0.00 | 0.00 | 29 | 1023.2 |
| 20260510145821 | 65 | 138 | 3.5 | 11.3 | 0.00 | 0.00 | 0.00 | 29 | 1023.2 |
| 20260510145306 | 64 | 87 | 5.2 | 11.3 | 0.00 | 0.00 | 0.00 | 29 | 1023.2 |
| 20260510144813 | 64 | 161 | 3.5 | 9.6 | 0.00 | 0.00 | 0.00 | 29 | 1023.2 |
| 20260510144318 | 64 | 149 | 2.6 | 7.8 | 0.00 | 0.00 | 0.00 | 30 | 1023.2 |
| 20260510143806 | 64 | 103 | 1.7 | 7.8 | 0.00 | 0.00 | 0.00 | 30 | 1023.2 |
| 20260510143314 | 64 | 98 | 4.3 | 7.0 | 0.00 | 0.00 | 0.00 | 30 | 1023.2 |
| 20260510142819 | 63 | 138 | 2.6 | 7.0 | 0.00 | 0.00 | 0.00 | 31 | 1023.2 |
| 20260510142308 | 63 | 142 | 1.7 | 4.3 | 0.00 | 0.00 | 0.00 | 32 | 1023.1 |
| 20260510141813 | 62 | 15 | 0.0 | 0.9 | 0.00 | 0.00 | 0.00 | 32 | 1023.0 |
| 20260510141318 | 61 | 15 | 0.0 | 0.9 | 0.00 | 0.00 | 0.00 | 33 | 1023.0 |
| 20260510140822 | 60 | 15 | 0.0 | 3.5 | 0.00 | 0.00 | 0.00 | 36 | 1022.9 |
| 20260510140327 | 59 | 15 | 0.9 | 4.3 | 0.00 | 0.00 | 0.00 | 37 | 1022.8 |
| 20260510135811 | 59 | 16 | 1.7 | 4.3 | 0.00 | 0.00 | 0.00 | 36 | 1022.8 |
| 20260510135317 | 58 | 58 | 0.9 | 2.6 | 0.00 | 0.00 | 0.00 | 38 | 1022.7 |
| 20260510134822 | 57 | 58 | 0.9 | 2.6 | 0.00 | 0.00 | 0.00 | 39 | 1022.7 |
| 20260510134327 | 57 | 58 | 0.9 | 2.6 | 0.00 | 0.00 | 0.00 | 39 | 1022.7 |
| 20260510133811 | 56 | 59 | 0.9 | 2.6 | 0.00 | 0.00 | 0.00 | 39 | 1022.8 |
| 20260510133317 | 56 | 59 | 0.0 | 2.6 | 0.00 | 0.00 | 0.00 | 40 | 1022.6 |
| 20260510132825 | 56 | 59 | 0.0 | 1.7 | 0.00 | 0.00 | 0.00 | 40 | 1022.6 |
| 20260510132310 | 56 | 60 | 0.0 | 1.7 | 0.00 | 0.00 | 0.00 | 40 | 1022.6 |
| 20260510131815 | 56 | 60 | 0.0 | 1.7 | 0.00 | 0.00 | 0.00 | 40 | 1022.5 |
| 20260510131320 | 56 | 60 | 0.0 | 0.0 | 0.00 | 0.00 | 0.00 | 40 | 1022.3 |
| 20260510130826 | 56 | 60 | 0.0 | 0.0 | 0.00 | 0.00 | 0.00 | 40 | 1022.2 |
| 20260510130310 | 56 | 60 | 0.0 | 0.0 | 0.00 | 0.00 | 0.00 | 40 | 1022.2 |
| 20260510125817 | 56 | 60 | 0.0 | 0.0 | 0.00 | 0.00 | 0.00 | 39 | 1022.2 |
| 20260510125322 | 56 | 60 | 0.0 | 0.0 | 0.00 | 0.00 | 0.00 | 39 | 1021.9 |
| 20260510124807 | 56 | 60 | 0.0 | 0.0 | 0.00 | 0.00 | 0.00 | 38 | 1021.9 |
| 20260510124312 | 56 | 60 | 0.0 | 0.0 | 0.00 | 0.00 | 0.00 | 37 | 1021.8 |
| 20260510123820 | 56 | 60 | 0.0 | 0.0 | 0.00 | 0.00 | 0.00 | 36 | 1021.8 |
| 20260510123328 | 57 | 60 | 0.0 | 0.0 | 0.00 | 0.00 | 0.00 | 36 | 1021.8 |
| 20260510122812 | 57 | 60 | 0.0 | 0.0 | 0.00 | 0.00 | 0.00 | 35 | 1021.8 |
| 20260510122315 | 57 | 60 | 0.0 | 0.0 | 0.00 | 0.00 | 0.00 | 35 | 1021.8 |
| 20260510121820 | 58 | 60 | 0.0 | 0.0 | 0.00 | 0.00 | 0.00 | 34 | 1021.8 |
| 20260510121325 | 59 | 60 | 0.0 | 1.7 | 0.00 | 0.00 | 0.00 | 33 | 1021.7 |
| 20260510120809 | 59 | 60 | 0.0 | 1.7 | 0.00 | 0.00 | 0.00 | 32 | 1021.5 |
| 20260510120314 | 59 | 60 | 0.0 | 1.7 | 0.00 | 0.00 | 0.00 | 31 | 1021.5 |
| 20260510115822 | 59 | 60 | 0.0 | 2.6 | 0.00 | 0.00 | 0.00 | 31 | 1021.4 |
| 20260510115310 | 60 | 60 | 0.0 | 2.6 | 0.00 | 0.00 | 0.00 | 31 | 1021.4 |
| 20260510114818 | 60 | 46 | 0.0 | 2.6 | 0.00 | 0.00 | 0.00 | 31 | 1021.5 |
| 20260510114322 | 60 | 46 | 0.0 | 2.6 | 0.00 | 0.00 | 0.00 | 30 | 1021.5 |
| 20260510113810 | 60 | 97 | 0.9 | 5.2 | 0.00 | 0.00 | 0.00 | 30 | 1021.4 |
| 20260510113318 | 60 | 90 | 1.7 | 6.1 | 0.00 | 0.00 | 0.00 | 30 | 1021.3 |
| 20260510112823 | 59 | 82 | 2.6 | 6.1 | 0.00 | 0.00 | 0.00 | 31 | 1021.2 |
| 20260510112308 | 58 | 84 | 0.0 | 5.2 | 0.00 | 0.00 | 0.00 | 32 | 1021.2 |
| 20260510111813 | 58 | 84 | 0.9 | 5.2 | 0.00 | 0.00 | 0.00 | 32 | 1021.2 |
| 20260510111321 | 57 | 22 | 0.0 | 0.9 | 0.00 | 0.00 | 0.00 | 33 | 1021.2 |
| 20260510110825 | 58 | 22 | 0.0 | 3.5 | 0.00 | 0.00 | 0.00 | 32 | 1021.1 |
| 20260510110309 | 57 | 22 | 0.0 | 0.9 | 0.00 | 0.00 | 0.00 | 32 | 1021.0 |
| 20260510105818 | 57 | 22 | 0.0 | 0.9 | 0.00 | 0.00 | 0.00 | 32 | 1020.9 |
| 20260510105325 | 57 | 22 | 0.0 | 0.0 | 0.00 | 0.00 | 0.00 | 32 | 1020.9 |
| 20260510104810 | 57 | 22 | 0.0 | 0.9 | 0.00 | 0.00 | 0.00 | 33 | 1020.8 |
| 20260510104315 | 56 | 22 | 0.0 | 1.7 | 0.00 | 0.00 | 0.00 | 33 | 1020.7 |
| 20260510103820 | 56 | 22 | 0.0 | 1.7 | 0.00 | 0.00 | 0.00 | 34 | 1020.8 |
| 20260510103324 | 56 | 22 | 0.0 | 0.0 | 0.00 | 0.00 | 0.00 | 36 | 1021.0 |
| 20260510102807 | 56 | 22 | 0.0 | 0.0 | 0.00 | 0.00 | 0.00 | 36 | 1021.2 |
| 20260510102312 | 56 | 22 | 0.0 | 0.0 | 0.00 | 0.00 | 0.00 | 36 | 1021.0 |
| 20260510101818 | 56 | 22 | 0.0 | 0.0 | 0.00 | 0.00 | 0.00 | 37 | 1020.8 |
| 20260510101322 | 56 | 22 | 0.0 | 0.0 | 0.00 | 0.00 | 0.00 | 36 | 1020.7 |
| 20260510100812 | 56 | 22 | 0.0 | 0.9 | 0.00 | 0.00 | 0.00 | 35 | 1020.5 |
| 20260510100317 | 56 | 22 | 0.0 | 0.9 | 0.00 | 0.00 | 0.00 | 35 | 1020.5 |
| 20260510095822 | 57 | 22 | 0.0 | 0.0 | 0.00 | 0.00 | 0.00 | 35 | 1020.5 |
| 20260510095326 | 57 | 22 | 0.0 | 0.0 | 0.00 | 0.00 | 0.00 | 34 | 1020.4 |
| 20260510094811 | 57 | 22 | 0.0 | 0.0 | 0.00 | 0.00 | 0.00 | 33 | 1020.5 |
| 20260510094317 | 57 | 22 | 0.0 | 0.0 | 0.00 | 0.00 | 0.00 | 33 | 1020.4 |
| 20260510093822 | 57 | 22 | 0.0 | 0.0 | 0.00 | 0.00 | 0.00 | 33 | 1020.3 |
| 20260510093326 | 57 | 22 | 0.0 | 0.0 | 0.00 | 0.00 | 0.00 | 32 | 1020.3 |
| 20260510092811 | 58 | 22 | 0.0 | 0.0 | 0.00 | 0.00 | 0.00 | 32 | 1020.1 |
| 20260510092317 | 58 | 22 | 0.0 | 0.0 | 0.00 | 0.00 | 0.00 | 31 | 1019.8 |
| 20260510091807 | 58 | 22 | 0.0 | 0.0 | 0.00 | 0.00 | 0.00 | 30 | 1019.9 |
| 20260510091312 | 58 | 22 | 0.0 | 0.0 | 0.00 | 0.00 | 0.00 | 30 | 1019.8 |
| 20260510090817 | 59 | 22 | 0.0 | 0.0 | 0.00 | 0.00 | 0.00 | 29 | 1019.8 |
| 20260510090322 | 59 | 22 | 0.0 | 0.0 | 0.00 | 0.00 | 0.00 | 28 | 1019.6 |
| 20260510085826 | 59 | 22 | 0.0 | 0.0 | 0.00 | 0.00 | 0.00 | 28 | 1019.4 |
| 20260510085310 | 60 | 22 | 0.0 | 2.6 | 0.00 | 0.00 | 0.00 | 27 | 1019.4 |
| 20260510084816 | 60 | 22 | 0.9 | 3.5 | 0.00 | 0.00 | 0.00 | 27 | 1019.3 |
| 20260510084321 | 59 | 17 | 0.9 | 3.5 | 0.00 | 0.00 | 0.00 | 27 | 1019.3 |
| 20260510083826 | 59 | 333 | 0.0 | 2.6 | 0.00 | 0.00 | 0.00 | 28 | 1019.4 |
| 20260510083311 | 58 | 315 | 0.0 | 3.5 | 0.00 | 0.00 | 0.00 | 29 | 1019.3 |
| 20260510082816 | 58 | 315 | 0.0 | 0.0 | 0.00 | 0.00 | 0.00 | 29 | 1019.2 |
| 20260510082325 | 58 | 315 | 0.0 | 0.0 | 0.00 | 0.00 | 0.00 | 30 | 1019.2 |
| 20260510081810 | 59 | 315 | 0.0 | 0.0 | 0.00 | 0.00 | 0.00 | 30 | 1019.2 |
| 20260510081314 | 59 | 315 | 0.0 | 0.9 | 0.00 | 0.00 | 0.00 | 29 | 1019.2 |
| 20260510080819 | 60 | 315 | 0.0 | 0.9 | 0.00 | 0.00 | 0.00 | 29 | 1019.3 |
| 20260510080325 | 60 | 315 | 0.0 | 0.0 | 0.00 | 0.00 | 0.00 | 28 | 1019.3 |
| 20260510075810 | 60 | 315 | 0.0 | 1.7 | 0.00 | 0.00 | 0.00 | 27 | 1019.3 |
| 20260510075313 | 61 | 315 | 0.0 | 1.7 | 0.00 | 0.00 | 0.00 | 26 | 1019.3 |
| 20260510074818 | 61 | 315 | 0.0 | 2.6 | 0.00 | 0.00 | 0.00 | 26 | 1019.3 |
| 20260510074323 | 61 | 315 | 0.0 | 4.3 | 0.00 | 0.00 | 0.00 | 27 | 1019.4 |
| 20260510073808 | 60 | 315 | 0.0 | 5.2 | 0.00 | 0.00 | 0.00 | 26 | 1019.2 |
| 20260510073317 | 60 | 313 | 0.9 | 5.2 | 0.00 | 0.00 | 0.00 | 27 | 1019.2 |
| 20260510072822 | 60 | 11 | 0.0 | 1.7 | 0.00 | 0.00 | 0.00 | 27 | 1019.3 |
| 20260510072307 | 60 | 12 | 0.9 | 1.7 | 0.00 | 0.00 | 0.00 | 27 | 1019.2 |
| 20260510071812 | 61 | 12 | 0.0 | 1.7 | 0.00 | 0.00 | 0.00 | 26 | 1019.2 |
| 20260510071319 | 61 | 13 | 0.0 | 2.6 | 0.00 | 0.00 | 0.00 | 26 | 1019.2 |
| 20260510070807 | 61 | 11 | 0.0 | 2.6 | 0.00 | 0.00 | 0.00 | 26 | 1019.2 |
| 20260510070315 | 61 | 11 | 0.0 | 2.6 | 0.00 | 0.00 | 0.00 | 26 | 1019.2 |
| 20260510065822 | 61 | 12 | 0.9 | 4.3 | 0.00 | 0.00 | 0.00 | 25 | 1019.2 |
| 20260510065307 | 62 | 19 | 0.9 | 3.5 | 0.00 | 0.00 | 0.00 | 25 | 1019.2 |
| 20260510064812 | 62 | 5 | 1.7 | 3.5 | 0.00 | 0.00 | 0.00 | 25 | 1019.1 |
| 20260510064321 | 62 | 355 | 0.9 | 7.0 | 0.00 | 0.00 | 0.00 | 25 | 1019.0 |
| 20260510063809 | 62 | 13 | 1.7 | 7.0 | 0.00 | 0.00 | 0.00 | 25 | 1019.1 |
| 20260510063315 | 62 | 299 | 2.6 | 6.1 | 0.00 | 0.00 | 0.00 | 25 | 1019.2 |
| 20260510062820 | 62 | 335 | 2.6 | 6.1 | 0.00 | 0.00 | 0.00 | 24 | 1019.2 |
| 20260510062325 | 62 | 307 | 2.6 | 5.2 | 0.00 | 0.00 | 0.00 | 24 | 1019.1 |
| 20260510061809 | 63 | 11 | 3.5 | 7.0 | 0.00 | 0.00 | 0.00 | 24 | 1019.0 |
| 20260510061314 | 63 | 329 | 3.5 | 7.0 | 0.00 | 0.00 | 0.00 | 23 | 1019.0 |
| 20260510060819 | 63 | 329 | 2.6 | 5.2 | 0.00 | 0.00 | 0.00 | 23 | 1019.0 |
| 20260510060323 | 63 | 316 | 1.7 | 3.5 | 0.00 | 0.00 | 0.00 | 23 | 1018.9 |
| 20260510055808 | 63 | 332 | 0.0 | 2.6 | 0.00 | 0.00 | 0.00 | 23 | 1018.8 |
| 20260510055317 | 63 | 332 | 0.9 | 4.3 | 0.00 | 0.00 | 0.00 | 23 | 1018.8 |
| 20260510054822 | 64 | 332 | 0.9 | 4.3 | 0.00 | 0.00 | 0.00 | 23 | 1018.8 |
| 20260510054307 | 64 | 323 | 2.6 | 5.2 | 0.00 | 0.00 | 0.00 | 22 | 1018.9 |
| 20260510053812 | 64 | 317 | 1.7 | 6.1 | 0.00 | 0.00 | 0.00 | 22 | 1018.8 |
| 20260510053317 | 64 | 327 | 3.5 | 6.1 | 0.00 | 0.00 | 0.00 | 22 | 1018.8 |
| 20260510052822 | 64 | 339 | 2.6 | 5.2 | 0.00 | 0.00 | 0.00 | 21 | 1018.9 |
| 20260510052326 | 65 | 321 | 1.7 | 7.0 | 0.00 | 0.00 | 0.00 | 21 | 1018.8 |
| 20260510051810 | 65 | 328 | 3.5 | 7.0 | 0.00 | 0.00 | 0.00 | 20 | 1018.8 |
| 20260510051316 | 65 | 334 | 1.7 | 8.7 | 0.00 | 0.00 | 0.00 | 20 | 1018.7 |
| 20260510050821 | 65 | 323 | 4.3 | 8.7 | 0.00 | 0.00 | 0.00 | 20 | 1018.8 |
| 20260510050309 | 65 | 308 | 3.5 | 7.0 | 0.00 | 0.00 | 0.00 | 19 | 1018.8 |
| 20260510045815 | 66 | 343 | 2.6 | 5.2 | 0.00 | 0.00 | 0.00 | 19 | 1018.6 |
| 20260510045320 | 66 | 327 | 1.7 | 6.1 | 0.00 | 0.00 | 0.00 | 19 | 1018.6 |
| 20260510044825 | 66 | 324 | 2.6 | 6.1 | 0.00 | 0.00 | 0.00 | 18 | 1018.6 |
| 20260510044310 | 66 | 340 | 1.7 | 7.0 | 0.00 | 0.00 | 0.00 | 18 | 1018.7 |
| 20260510043815 | 66 | 329 | 2.6 | 5.2 | 0.00 | 0.00 | 0.00 | 18 | 1018.7 |
| 20260510043323 | 65 | 15 | 2.6 | 4.3 | 0.00 | 0.00 | 0.00 | 18 | 1018.7 |
| 20260510042808 | 65 | 25 | 0.9 | 3.5 | 0.00 | 0.00 | 0.00 | 18 | 1018.7 |
| 20260510042317 | 65 | 355 | 0.0 | 2.6 | 0.00 | 0.00 | 0.00 | 17 | 1018.7 |
| 20260510041821 | 65 | 355 | 0.9 | 2.6 | 0.00 | 0.00 | 0.00 | 17 | 1018.6 |
| 20260510041309 | 65 | 355 | 0.0 | 1.7 | 0.00 | 0.00 | 0.00 | 17 | 1018.7 |
| 20260510040814 | 65 | 355 | 0.0 | 3.5 | 0.00 | 0.00 | 0.00 | 17 | 1018.5 |
| 20260510040319 | 65 | 338 | 0.0 | 2.6 | 0.00 | 0.00 | 0.00 | 17 | 1018.4 |
| 20260510035824 | 66 | 335 | 0.0 | 2.6 | 0.00 | 0.00 | 0.00 | 17 | 1018.4 |
| 20260510035309 | 66 | 335 | 0.0 | 2.6 | 0.00 | 0.00 | 0.00 | 16 | 1018.4 |
| 20260510034814 | 66 | 335 | 0.9 | 2.6 | 0.00 | 0.00 | 0.00 | 16 | 1018.3 |
| 20260510034322 | 66 | 336 | 0.9 | 3.5 | 0.00 | 0.00 | 0.00 | 16 | 1018.4 |
| 20260510033810 | 67 | 336 | 0.9 | 4.3 | 0.00 | 0.00 | 0.00 | 15 | 1018.3 |
| 20260510033315 | 67 | 335 | 0.9 | 4.3 | 0.00 | 0.00 | 0.00 | 15 | 1018.2 |
| 20260510032823 | 67 | 319 | 0.9 | 5.2 | 0.00 | 0.00 | 0.00 | 15 | 1018.1 |
| 20260510032315 | 67 | 360 | 1.7 | 5.2 | 0.00 | 0.00 | 0.00 | 14 | 1018.1 |
| 20260510031823 | 67 | 332 | 1.7 | 5.2 | 0.00 | 0.00 | 0.00 | 14 | 1018.0 |
| 20260510031307 | 67 | 355 | 1.7 | 4.3 | 0.00 | 0.00 | 0.00 | 14 | 1017.9 |
| 20260510030813 | 68 | 225 | 0.9 | 2.6 | 0.00 | 0.00 | 0.00 | 14 | 1017.8 |
| 20260510030317 | 68 | 225 | 0.0 | 0.9 | 0.00 | 0.00 | 0.00 | 14 | 1017.6 |
| 20260510025823 | 69 | 225 | 0.0 | 1.7 | 0.00 | 0.00 | 0.00 | 14 | 1017.5 |
| 20260510025328 | 69 | 225 | 0.0 | 1.7 | 0.00 | 0.00 | 0.00 | 14 | 1017.4 |
| 20260510024813 | 69 | 225 | 0.0 | 2.6 | 0.00 | 0.00 | 0.00 | 14 | 1017.4 |
| 20260510024319 | 70 | 225 | 0.0 | 2.6 | 0.00 | 0.00 | 0.00 | 14 | 1017.2 |
| 20260510023824 | 70 | 225 | 0.0 | 2.6 | 0.00 | 0.00 | 0.00 | 13 | 1017.1 |
| 20260510023313 | 70 | 225 | 0.0 | 3.5 | 0.00 | 0.00 | 0.00 | 13 | 1017.1 |
| 20260510022818 | 71 | 225 | 0.0 | 3.5 | 0.00 | 0.00 | 0.00 | 13 | 1017.0 |
| 20260510022324 | 71 | 225 | 0.0 | 2.6 | 0.00 | 0.00 | 0.00 | 12 | 1016.9 |
| 20260510021809 | 72 | 225 | 0.0 | 3.5 | 0.00 | 0.00 | 0.00 | 12 | 1016.9 |
| 20260510021315 | 72 | 225 | 0.0 | 3.5 | 0.00 | 0.00 | 0.00 | 12 | 1016.8 |
| 20260510020821 | 72 | 225 | 0.9 | 6.1 | 0.00 | 0.00 | 0.00 | 11 | 1016.7 |
| 20260510020309 | 72 | 318 | 0.9 | 7.0 | 0.00 | 0.00 | 0.00 | 11 | 1016.7 |
| 20260510015817 | 73 | 279 | 1.7 | 7.0 | 0.00 | 0.00 | 0.00 | 11 | 1016.7 |
| 20260510015321 | 73 | 261 | 0.9 | 7.8 | 0.00 | 0.00 | 0.00 | 12 | 1016.7 |
| 20260510014806 | 73 | 271 | 1.7 | 7.8 | 0.00 | 0.00 | 0.00 | 11 | 1016.6 |
| 20260510014317 | 74 | 255 | 2.6 | 12.2 | 0.00 | 0.00 | 0.00 | 11 | 1016.6 |
| 20260510013823 | 74 | 258 | 2.6 | 12.2 | 0.00 | 0.00 | 0.00 | 10 | 1016.5 |
| 20260510013308 | 74 | 307 | 2.6 | 11.3 | 0.00 | 0.00 | 0.00 | 10 | 1016.5 |
| 20260510012815 | 75 | 284 | 4.3 | 9.6 | 0.00 | 0.00 | 0.00 | 10 | 1016.4 |
| 20260510012320 | 75 | 295 | 4.3 | 8.7 | 0.00 | 0.00 | 0.00 | 10 | 1016.3 |
| 20260510011825 | 75 | 239 | 4.3 | 11.3 | 0.00 | 0.00 | 0.00 | 10 | 1016.3 |
| 20260510011329 | 76 | 262 | 3.5 | 10.4 | 0.00 | 0.00 | 0.00 | 10 | 1016.2 |
| 20260510010814 | 76 | 265 | 4.3 | 9.6 | 0.00 | 0.00 | 0.00 | 10 | 1016.2 |
| 20260510010320 | 76 | 246 | 1.7 | 8.7 | 0.00 | 0.00 | 0.00 | 10 | 1016.2 |
| 20260510005826 | 76 | 328 | 3.5 | 9.6 | 0.00 | 0.00 | 0.00 | 10 | 1016.1 |
| 20260510005315 | 76 | 301 | 2.6 | 10.4 | 0.00 | 0.00 | 0.00 | 10 | 1016.1 |
| 20260510004820 | 76 | 262 | 4.3 | 10.4 | 0.00 | 0.00 | 0.00 | 9 | 1016.1 |
| 20260510004325 | 76 | 271 | 3.5 | 13.0 | 0.00 | 0.00 | 0.00 | 10 | 1016.1 |
| 20260510003811 | 77 | 291 | 6.1 | 13.0 | 0.00 | 0.00 | 0.00 | 10 | 1016.2 |
| 20260510003316 | 76 | 269 | 4.3 | 12.2 | 0.00 | 0.00 | 0.00 | 10 | 1016.0 |
| 20260510002822 | 76 | 250 | 4.3 | 12.2 | 0.00 | 0.00 | 0.00 | 10 | 1016.0 |
| 20260510002330 | 76 | 237 | 3.5 | 13.0 | 0.00 | 0.00 | 0.00 | 9 | 1016.0 |
| 20260510001815 | 77 | 250 | 4.3 | 13.0 | 0.00 | 0.00 | 0.00 | 9 | 1016.0 |
| 20260510001319 | 77 | 245 | 3.5 | 13.0 | 0.00 | 0.00 | 0.00 | 9 | 1016.0 |
| 20260510000824 | 77 | 281 | 5.2 | 13.0 | 0.00 | 0.00 | 0.00 | 10 | 1016.0 |
| 20260510000314 | 77 | 243 | 4.3 | 8.7 | 0.00 | 0.00 | 0.00 | 10 | 1015.9 |
| 20260509235817 | 76 | 221 | 2.6 | 7.0 | 0.00 | 0.00 | 0.00 | 10 | 1015.9 |
| 20260509235323 | 76 | 296 | 2.6 | 10.4 | 0.00 | 0.00 | 0.00 | 10 | 1016.0 |
| 20260509234828 | 77 | 261 | 4.3 | 13.0 | 0.00 | 0.00 | 0.00 | 10 | 1016.0 |
| 20260509234314 | 77 | 279 | 5.2 | 11.3 | 0.00 | 0.00 | 0.00 | 9 | 1015.9 |
| 20260509233817 | 77 | 266 | 4.3 | 11.3 | 0.00 | 0.00 | 0.00 | 9 | 1015.9 |
| 20260509233322 | 77 | 268 | 2.6 | 17.4 | 0.00 | 0.00 | 0.00 | 10 | 1015.8 |
| 20260509232828 | 77 | 245 | 7.0 | 17.4 | 0.00 | 0.00 | 0.00 | 9 | 1015.9 |
| 20260509232312 | 78 | 221 | 3.5 | 11.3 | 0.00 | 0.00 | 0.00 | 9 | 1015.9 |